EZS87GD LSGG-BKPR

Flight info

Callsign EZS87GD
Flight time 1h 57m
Altitude 35000
Route MEDAM DCT NITAM DCT MOGBO DCT KODOK DCT TOP DCT LURUT DCT IBENI/N0411F320 DCT TAZ/N0402F310 DCT RINAV/N0355F210 DCT ARBER
Aircraft A320/M-SDE2E3FGHIJ1RWXYZ/LB1

Departure

Time 2026-04-17 11:36
Airport Geneva International Airport (LSGG)

Arrival

Time 2026-04-17 13:33
Airport Priština Adem Jashari International Airport (BKPR)
Time Latitude Longitude Altitude Speed Heading
2026-04-17 11:11 46.23451 6.10849 1393 ft 0 kts 134°
2026-04-17 11:27 46.23443 6.10861 1393 ft 5 kts 134°
2026-04-17 11:27 46.23425 6.10889 1404 ft 3 kts 134°
2026-04-17 11:27 46.23412 6.10907 1401 ft 2 kts 136°
2026-04-17 11:28 46.23407 6.10905 1393 ft 1 kts 185°
2026-04-17 11:28 46.23363 6.10856 1396 ft 14 kts 231°
2026-04-17 11:28 46.23394 6.10737 1393 ft 12 kts 317°
2026-04-17 11:28 46.23417 6.10662 1394 ft 7 kts 238°
2026-04-17 11:29 46.23391 6.10625 1392 ft 3 kts 223°
2026-04-17 11:29 46.23366 6.10591 1400 ft 10 kts 224°
2026-04-17 11:29 46.23296 6.10489 1400 ft 16 kts 225°
2026-04-17 11:29 46.23219 6.10376 1399 ft 18 kts 225°
2026-04-17 11:30 46.23128 6.10236 1394 ft 19 kts 228°
2026-04-17 11:30 46.23042 6.10107 1400 ft 17 kts 225°
2026-04-17 11:30 46.22965 6.09994 1402 ft 15 kts 225°
2026-04-17 11:30 46.22897 6.09895 1401 ft 13 kts 225°
2026-04-17 11:31 46.22837 6.09807 1403 ft 11 kts 225°
2026-04-17 11:31 46.22776 6.09717 1400 ft 16 kts 225°
2026-04-17 11:31 46.22701 6.09608 1408 ft 16 kts 225°
2026-04-17 11:31 46.22628 6.09500 1404 ft 14 kts 225°
2026-04-17 11:32 46.22569 6.09400 1409 ft 11 kts 239°
2026-04-17 11:32 46.22552 6.09325 1410 ft 6 kts 260°
2026-04-17 11:32 46.22550 6.09304 1404 ft 1 kts 265°
2026-04-17 11:32 46.22550 6.09277 1407 ft 4 kts 269°
2026-04-17 11:33 46.22550 6.09264 1408 ft 0 kts 270°
2026-04-17 11:33 46.22550 6.09262 1408 ft 1 kts 270°
2026-04-17 11:34 46.22550 6.09232 1410 ft 5 kts 272°
2026-04-17 11:34 46.22559 6.09182 1413 ft 2 kts 295°
2026-04-17 11:34 46.22571 6.09159 1414 ft 5 kts 309°
2026-04-17 11:34 46.22603 6.09142 1416 ft 3 kts
2026-04-17 11:35 46.22618 6.09153 1416 ft 4 kts 33°
2026-04-17 11:35 46.22699 6.09270 1418 ft 45 kts 45°
2026-04-17 11:35 46.23090 6.09844 1410 ft 112 kts 45°
2026-04-17 11:35 46.23770 6.10849 1409 ft 163 kts 47°
2026-04-17 11:36 46.24552 6.12026 2091 ft 162 kts 46°
2026-04-17 11:36 46.25332 6.13198 2881 ft 162 kts 46°
2026-04-17 11:36 46.26137 6.14373 3499 ft 167 kts 44°
2026-04-17 11:36 46.26956 6.15551 4140 ft 166 kts 44°
2026-04-17 11:37 46.27782 6.16734 4741 ft 172 kts 44°
2026-04-17 11:37 46.28671 6.18036 5063 ft 192 kts 44°
2026-04-17 11:37 46.29661 6.19493 5334 ft 214 kts 45°
2026-04-17 11:37 46.30756 6.21105 5644 ft 234 kts 45°
2026-04-17 11:38 46.31954 6.22872 6010 ft 258 kts 45°
2026-04-17 11:38 46.33259 6.24800 6565 ft 276 kts 45°
2026-04-17 11:38 46.34621 6.26807 7361 ft 282 kts 45°
2026-04-17 11:38 46.35852 6.29029 8184 ft 287 kts 65°
2026-04-17 11:39 46.36267 6.31852 9043 ft 291 kts 92°
2026-04-17 11:39 46.35837 6.34670 9908 ft 294 kts 116°
2026-04-17 11:39 46.34665 6.37081 10718 ft 296 kts 139°
2026-04-17 11:39 46.32911 6.38612 11500 ft 298 kts 163°
2026-04-17 11:40 46.30861 6.38965 12275 ft 299 kts 188°
2026-04-17 11:40 46.28856 6.38079 12819 ft 311 kts 208°
2026-04-17 11:40 46.26886 6.36531 13110 ft 332 kts 211°
2026-04-17 11:40 46.24852 6.34842 13729 ft 341 kts 211°
2026-04-17 11:41 46.22787 6.33098 14415 ft 346 kts 211°
2026-04-17 11:41 46.20598 6.31600 15080 ft 351 kts 200°
2026-04-17 11:41 46.18206 6.30774 15762 ft 357 kts 188°
2026-04-17 11:41 46.15713 6.30570 16435 ft 360 kts 183°
2026-04-17 11:42 46.13197 6.30437 17106 ft 364 kts 183°
2026-04-17 11:42 46.10653 6.30302 17771 ft 368 kts 184°
2026-04-17 11:42 46.08085 6.30162 18414 ft 371 kts 184°
2026-04-17 11:42 46.05493 6.30011 18994 ft 375 kts 184°
2026-04-17 11:43 46.02877 6.29852 19572 ft 377 kts 184°
2026-04-17 11:43 46.01137 6.29745 19959 ft 379 kts 184°
2026-04-17 11:43 45.98494 6.29586 20527 ft 382 kts 184°
2026-04-17 11:43 45.95820 6.29427 21092 ft 386 kts 184°
2026-04-17 11:44 45.93131 6.29297 21664 ft 389 kts 181°
2026-04-17 11:44 45.90425 6.29725 22198 ft 395 kts 169°
2026-04-17 11:44 45.87796 6.30938 22728 ft 401 kts 158°
2026-04-17 11:44 45.85345 6.32901 23222 ft 407 kts 146°
2026-04-17 11:45 45.83056 6.35331 23719 ft 411 kts 145°
2026-04-17 11:45 45.80748 6.37788 24155 ft 415 kts 145°
2026-04-17 11:45 45.78418 6.40258 24586 ft 418 kts 145°
2026-04-17 11:45 45.76072 6.42740 24993 ft 421 kts 145°
2026-04-17 11:46 45.73711 6.45241 25407 ft 423 kts 145°
2026-04-17 11:46 45.71335 6.47756 25811 ft 426 kts 145°
2026-04-17 11:46 45.68942 6.50285 26226 ft 429 kts 145°
2026-04-17 11:46 45.66531 6.52824 26620 ft 432 kts 145°
2026-04-17 11:47 45.64106 6.55376 27005 ft 434 kts 145°
2026-04-17 11:47 45.61666 6.57947 27402 ft 437 kts 145°
2026-04-17 11:47 45.59251 6.60491 27789 ft 440 kts 145°
2026-04-17 11:47 45.56782 6.63086 28156 ft 442 kts 145°
2026-04-17 11:48 45.54298 6.65693 28508 ft 445 kts 145°
2026-04-17 11:48 45.51831 6.68278 28876 ft 448 kts 145°
2026-04-17 11:48 45.49310 6.70918 29230 ft 451 kts 145°
2026-04-17 11:48 45.46741 6.73605 29598 ft 454 kts 144°
2026-04-17 11:49 45.44218 6.76230 29941 ft 456 kts 145°
2026-04-17 11:49 45.41630 6.78869 30281 ft 459 kts 146°
2026-04-17 11:49 45.39010 6.81497 30584 ft 462 kts 146°
2026-04-17 11:49 45.36373 6.84117 30878 ft 464 kts 146°
2026-04-17 11:50 45.33721 6.86749 31171 ft 466 kts 146°
2026-04-17 11:50 45.31059 6.89394 31464 ft 468 kts 146°
2026-04-17 11:50 45.28385 6.92053 31757 ft 470 kts 146°
2026-04-17 11:50 45.25806 6.94888 32160 ft 470 kts 139°
2026-04-17 11:51 45.23451 6.98102 32568 ft 469 kts 136°
2026-04-17 11:51 45.21125 7.01324 32999 ft 466 kts 136°
2026-04-17 11:51 45.18803 7.04536 33372 ft 466 kts 136°
2026-04-17 11:51 45.16479 7.07741 33736 ft 466 kts 136°
2026-04-17 11:52 45.14152 7.10934 34124 ft 465 kts 136°
2026-04-17 11:52 45.11833 7.14116 34459 ft 465 kts 135°
2026-04-17 11:52 45.09721 7.17576 34777 ft 465 kts 126°
2026-04-17 11:52 45.07861 7.21316 35091 ft 465 kts 125°
2026-04-17 11:53 45.06012 7.25054 35199 ft 462 kts 124°
2026-04-17 11:53 45.04179 7.28749 35223 ft 456 kts 125°
2026-04-17 11:53 45.00546 7.36042 35214 ft 453 kts 124°
2026-04-17 11:54 44.97788 7.43976 35179 ft 451 kts 105°
2026-04-17 11:54 44.96419 7.52600 35180 ft 450 kts 100°
2026-04-17 11:55 44.95125 7.61244 35179 ft 450 kts 101°
2026-04-17 11:55 44.93874 7.69890 35179 ft 449 kts 98°
2026-04-17 11:56 44.93044 7.78616 35174 ft 448 kts 94°
2026-04-17 11:56 44.92381 7.87355 35169 ft 448 kts 95°
2026-04-17 11:57 44.91508 7.96063 35167 ft 449 kts 97°
2026-04-17 11:57 44.90456 8.04752 35175 ft 449 kts 98°
2026-04-17 11:58 44.89385 8.13429 35166 ft 449 kts 98°
2026-04-17 11:58 44.88367 8.22048 35163 ft 449 kts 97°
2026-04-17 11:59 44.87360 8.30727 35160 ft 449 kts 97°
2026-04-17 11:59 44.86339 8.39413 35164 ft 449 kts 97°
2026-04-17 12:00 44.85295 8.48087 35163 ft 449 kts 97°
2026-04-17 12:00 44.84249 8.56765 35161 ft 449 kts 97°
2026-04-17 12:01 44.83202 8.65439 35163 ft 449 kts 97°
2026-04-17 12:01 44.82141 8.74120 35162 ft 450 kts 98°
2026-04-17 12:02 44.81077 8.82787 35169 ft 449 kts 97°
2026-04-17 12:02 44.80008 8.91442 35161 ft 448 kts 98°
2026-04-17 12:03 44.78930 9.00089 35162 ft 448 kts 98°
2026-04-17 12:03 44.77848 9.08725 35155 ft 448 kts 98°
2026-04-17 12:04 44.76761 9.17355 35159 ft 448 kts 98°
2026-04-17 12:04 44.75665 9.25976 35162 ft 448 kts 98°
2026-04-17 12:05 44.74570 9.34598 35163 ft 448 kts 98°
2026-04-17 12:05 44.73470 9.43159 35157 ft 448 kts 98°
2026-04-17 12:06 44.72353 9.51770 35172 ft 447 kts 98°
2026-04-17 12:06 44.71237 9.60364 35166 ft 447 kts 98°
2026-04-17 12:07 44.70116 9.68947 35161 ft 446 kts 98°
2026-04-17 12:07 44.68984 9.77518 35162 ft 446 kts 98°
2026-04-17 12:08 44.67853 9.86087 35152 ft 446 kts 98°
2026-04-17 12:08 44.66716 9.94645 35176 ft 446 kts 98°
2026-04-17 12:09 44.65571 10.03204 35196 ft 446 kts 98°
2026-04-17 12:09 44.64414 10.11761 35190 ft 446 kts 98°
2026-04-17 12:10 44.63250 10.20313 35192 ft 446 kts 98°
2026-04-17 12:10 44.62088 10.28854 35202 ft 445 kts 98°
2026-04-17 12:11 44.60922 10.37390 35246 ft 445 kts 98°
2026-04-17 12:12 44.59157 10.50178 35259 ft 445 kts 98°
2026-04-17 12:12 44.57969 10.58695 35259 ft 445 kts 98°
2026-04-17 12:13 44.56774 10.67204 35285 ft 445 kts 98°
2026-04-17 12:13 44.55576 10.75708 35288 ft 444 kts 98°
2026-04-17 12:14 44.54382 10.84208 35284 ft 444 kts 98°
2026-04-17 12:14 44.53175 10.92642 35273 ft 444 kts 98°
2026-04-17 12:15 44.52203 10.99396 35272 ft 444 kts 98°
2026-04-17 12:15 44.50895 11.07862 35258 ft 445 kts 99°
2026-04-17 12:16 44.49511 11.16303 35254 ft 444 kts 100°
2026-04-17 12:16 44.48126 11.24734 35250 ft 444 kts 100°
2026-04-17 12:16 44.47440 11.28950 35130 ft 444 kts 99°
2026-04-17 12:17 44.46753 11.33164 35139 ft 444 kts 99°
2026-04-17 12:17 44.45380 11.41592 35145 ft 444 kts 99°
2026-04-17 12:18 44.44008 11.50006 35159 ft 444 kts 99°
2026-04-17 12:18 44.42627 11.58421 35178 ft 444 kts 100°
2026-04-17 12:19 44.41234 11.66827 35191 ft 444 kts 100°
2026-04-17 12:19 44.39836 11.75233 35209 ft 444 kts 100°
2026-04-17 12:20 44.38441 11.83636 35214 ft 444 kts 99°
2026-04-17 12:20 44.37037 11.92034 35202 ft 444 kts 100°
2026-04-17 12:21 44.35615 12.00421 35201 ft 443 kts 100°
2026-04-17 12:21 44.34199 12.08785 35190 ft 443 kts 100°
2026-04-17 12:22 44.32775 12.17155 35187 ft 443 kts 100°
2026-04-17 12:22 44.31345 12.25516 35171 ft 443 kts 100°
2026-04-17 12:23 44.29907 12.33882 35160 ft 443 kts 100°
2026-04-17 12:23 44.28466 12.42239 35169 ft 443 kts 100°
2026-04-17 12:24 44.27015 12.50586 35165 ft 443 kts 100°
2026-04-17 12:24 44.25556 12.58940 35162 ft 443 kts 101°
2026-04-17 12:25 44.24093 12.67289 35156 ft 443 kts 100°
2026-04-17 12:25 44.22638 12.75578 35158 ft 443 kts 101°
2026-04-17 12:26 44.21169 12.83925 35167 ft 443 kts 101°
2026-04-17 12:26 44.19691 12.92260 35157 ft 443 kts 101°
2026-04-17 12:27 44.18200 13.00585 35151 ft 443 kts 101°
2026-04-17 12:27 44.16710 13.08908 35139 ft 443 kts 101°
2026-04-17 12:28 44.15207 13.17223 35149 ft 443 kts 101°
2026-04-17 12:28 44.13703 13.25531 35141 ft 442 kts 101°
2026-04-17 12:29 44.12199 13.33833 35133 ft 442 kts 101°
2026-04-17 12:29 44.10690 13.42124 35129 ft 442 kts 101°
2026-04-17 12:30 44.09175 13.50413 35124 ft 442 kts 101°
2026-04-17 12:30 44.07647 13.58700 35138 ft 442 kts 101°
2026-04-17 12:31 44.06108 13.66975 35118 ft 442 kts 101°
2026-04-17 12:31 44.04836 13.73855 35132 ft 442 kts 101°
2026-04-17 12:32 44.03302 13.82122 35109 ft 442 kts 101°
2026-04-17 12:32 44.01749 13.90376 35125 ft 442 kts 103°
2026-04-17 12:33 43.99415 13.98313 35112 ft 445 kts 112°
2026-04-17 12:33 43.96856 14.06147 35115 ft 446 kts 111°
2026-04-17 12:34 43.94305 14.14001 35104 ft 446 kts 111°
2026-04-17 12:34 43.91745 14.21845 35122 ft 446 kts 112°
2026-04-17 12:35 43.89169 14.29681 35117 ft 446 kts 112°
2026-04-17 12:35 43.86592 14.37502 35123 ft 446 kts 112°
2026-04-17 12:37 43.77984 14.63466 35098 ft 445 kts 112°
2026-04-17 12:38 43.75802 14.70016 35084 ft 445 kts 112°
2026-04-17 12:38 43.73203 14.77794 35092 ft 446 kts 112°
2026-04-17 12:39 43.70599 14.85561 35096 ft 445 kts 112°
2026-04-17 12:39 43.67989 14.93318 35096 ft 445 kts 112°
2026-04-17 12:40 43.65377 15.01061 35086 ft 445 kts 112°
2026-04-17 12:40 43.62761 15.08791 35071 ft 444 kts 112°
2026-04-17 12:41 43.60142 15.16522 35074 ft 445 kts 112°
2026-04-17 12:41 43.57516 15.24237 35065 ft 444 kts 112°
2026-04-17 12:42 43.54889 15.31936 35070 ft 444 kts 112°
2026-04-17 12:42 43.52262 15.39619 35066 ft 443 kts 112°
2026-04-17 12:43 43.49626 15.47292 35060 ft 443 kts 112°
2026-04-17 12:43 43.46993 15.54965 35048 ft 443 kts 112°
2026-04-17 12:44 43.44355 15.62625 35045 ft 443 kts 113°
2026-04-17 12:44 43.41702 15.70272 35056 ft 443 kts 113°
2026-04-17 12:45 43.39053 15.77912 35048 ft 443 kts 113°
2026-04-17 12:45 43.36392 15.85556 35041 ft 443 kts 113°
2026-04-17 12:46 43.33730 15.93193 35043 ft 443 kts 113°
2026-04-17 12:46 43.31063 16.00823 35043 ft 443 kts 113°
2026-04-17 12:47 43.28391 16.08438 35044 ft 443 kts 113°
2026-04-17 12:47 43.25719 16.16043 35051 ft 442 kts 113°
2026-04-17 12:48 43.23042 16.23626 35049 ft 441 kts 113°
2026-04-17 12:48 43.20363 16.31202 35055 ft 441 kts 113°
2026-04-17 12:49 43.17684 16.38761 35052 ft 441 kts 113°
2026-04-17 12:49 43.14999 16.46302 35047 ft 440 kts 114°
2026-04-17 12:50 43.12312 16.53833 35039 ft 440 kts 113°
2026-04-17 12:50 43.09626 16.61353 35031 ft 439 kts 114°
2026-04-17 12:51 43.06934 16.68857 35020 ft 440 kts 114°
2026-04-17 12:51 43.04255 16.76307 35027 ft 439 kts 114°
2026-04-17 12:52 43.01552 16.83799 35021 ft 440 kts 114°
2026-04-17 12:52 42.98847 16.91289 35017 ft 439 kts 114°
2026-04-17 12:53 42.96139 16.98767 35018 ft 439 kts 114°
2026-04-17 12:53 42.93420 17.06239 35020 ft 439 kts 114°
2026-04-17 12:54 42.90700 17.13690 35019 ft 438 kts 114°
2026-04-17 12:54 42.87989 17.21122 35008 ft 438 kts 114°
2026-04-17 12:55 42.85272 17.28544 35000 ft 437 kts 114°
2026-04-17 12:55 42.82556 17.35953 34991 ft 437 kts 114°
2026-04-17 12:56 42.79827 17.43351 34996 ft 437 kts 114°
2026-04-17 12:56 42.77091 17.50750 34991 ft 437 kts 114°
2026-04-17 12:57 42.74358 17.58151 34987 ft 438 kts 114°
2026-04-17 12:57 42.71618 17.65534 34983 ft 437 kts 114°
2026-04-17 12:58 42.68875 17.72905 34975 ft 437 kts 114°
2026-04-17 12:58 42.66128 17.80266 34968 ft 437 kts 114°
2026-04-17 12:59 42.63379 17.87624 34969 ft 437 kts 114°
2026-04-17 12:59 42.60622 17.94982 34965 ft 437 kts 114°
2026-04-17 13:00 42.57859 18.02328 34979 ft 436 kts 114°
2026-04-17 13:00 42.55092 18.09651 34975 ft 436 kts 114°
2026-04-17 13:01 42.52323 18.16976 34977 ft 436 kts 114°
2026-04-17 13:01 42.49554 18.24286 34975 ft 436 kts 115°
2026-04-17 13:02 42.46779 18.31587 34967 ft 436 kts 114°
2026-04-17 13:02 42.44008 18.38875 34965 ft 435 kts 115°
2026-04-17 13:03 42.41228 18.46158 34966 ft 435 kts 115°
2026-04-17 13:03 42.38443 18.53429 34963 ft 435 kts 115°
2026-04-17 13:04 42.35654 18.60700 34963 ft 436 kts 115°
2026-04-17 13:04 42.32875 18.67915 34964 ft 435 kts 115°
2026-04-17 13:05 42.30079 18.75169 34940 ft 436 kts 115°
2026-04-17 13:05 42.27453 18.82526 34942 ft 434 kts 110°
2026-04-17 13:06 42.25207 18.90092 34945 ft 435 kts 110°
2026-04-17 13:06 42.22951 18.97673 34930 ft 435 kts 110°
2026-04-17 13:07 42.20689 19.05252 34929 ft 436 kts 110°
2026-04-17 13:07 42.18419 19.12829 34935 ft 436 kts 111°
2026-04-17 13:08 42.16142 19.20406 34932 ft 437 kts 111°
2026-04-17 13:08 42.13855 19.27992 34916 ft 437 kts 111°
2026-04-17 13:09 42.11562 19.35582 34920 ft 438 kts 111°
2026-04-17 13:09 42.09266 19.43166 34917 ft 438 kts 111°
2026-04-17 13:10 42.06954 19.50763 34783 ft 440 kts 111°
2026-04-17 13:10 42.05792 19.54563 34550 ft 438 kts 111°
2026-04-17 13:10 42.04634 19.58351 34295 ft 437 kts 111°
2026-04-17 13:10 42.03480 19.62124 34057 ft 435 kts 112°
2026-04-17 13:11 42.02328 19.65881 33806 ft 434 kts 112°
2026-04-17 13:11 42.01182 19.69622 33536 ft 432 kts 112°
2026-04-17 13:11 42.00123 19.73392 33264 ft 430 kts 105°
2026-04-17 13:11 41.99508 19.77307 32994 ft 427 kts 95°
2026-04-17 13:12 41.99384 19.81278 32733 ft 426 kts 84°
2026-04-17 13:12 42.00518 19.89087 32213 ft 425 kts 72°
2026-04-17 13:12 42.01325 19.92915 31953 ft 426 kts 72°
2026-04-17 13:13 42.02123 19.96739 31701 ft 423 kts 71°
2026-04-17 13:13 42.02912 20.00538 31412 ft 420 kts 72°
2026-04-17 13:13 42.03693 20.04308 30949 ft 417 kts 73°
2026-04-17 13:13 42.04466 20.08052 30497 ft 414 kts 72°
2026-04-17 13:14 42.05223 20.11722 30038 ft 412 kts 73°
2026-04-17 13:14 42.05985 20.15417 29541 ft 408 kts 73°
2026-04-17 13:14 42.06740 20.19074 29111 ft 403 kts 72°
2026-04-17 13:14 42.07488 20.22688 28689 ft 398 kts 73°
2026-04-17 13:15 42.08223 20.26261 28260 ft 394 kts 72°
2026-04-17 13:15 42.08946 20.29795 27850 ft 390 kts 73°
2026-04-17 13:15 42.09661 20.33289 27432 ft 385 kts 73°
2026-04-17 13:15 42.10369 20.36751 27009 ft 382 kts 72°
2026-04-17 13:16 42.11074 20.40188 26581 ft 379 kts 72°
2026-04-17 13:16 42.11772 20.43594 26147 ft 376 kts 72°
2026-04-17 13:16 42.12464 20.46976 25708 ft 374 kts 72°
2026-04-17 13:16 42.13377 20.50229 25275 ft 370 kts 61°
2026-04-17 13:17 42.14677 20.53194 24817 ft 367 kts 54°
2026-04-17 13:17 42.16066 20.56068 24353 ft 365 kts 54°
2026-04-17 13:17 42.17447 20.58941 23894 ft 365 kts 54°
2026-04-17 13:17 42.18822 20.61811 23408 ft 364 kts 54°
2026-04-17 13:18 42.20190 20.64680 22926 ft 362 kts 55°
2026-04-17 13:18 42.21090 20.66569 22629 ft 360 kts 55°
2026-04-17 13:18 42.22440 20.69400 22168 ft 358 kts 55°
2026-04-17 13:18 42.23782 20.72214 21720 ft 356 kts 54°
2026-04-17 13:19 42.25115 20.75011 21278 ft 353 kts 55°
2026-04-17 13:19 42.26440 20.77792 20844 ft 351 kts 55°
2026-04-17 13:19 42.27754 20.80558 20407 ft 349 kts 54°
2026-04-17 13:19 42.29061 20.83307 20054 ft 345 kts 54°
2026-04-17 13:20 42.30359 20.86039 19570 ft 346 kts 55°
2026-04-17 13:20 42.31658 20.88773 19138 ft 345 kts 54°
2026-04-17 13:20 42.32955 20.91500 18716 ft 344 kts 53°
2026-04-17 13:20 42.34244 20.94223 18291 ft 344 kts 54°
2026-04-17 13:21 42.35529 20.96940 17853 ft 342 kts 56°
2026-04-17 13:21 42.36802 20.99637 17457 ft 338 kts 54°
2026-04-17 13:21 42.38064 21.02304 17026 ft 336 kts 54°
2026-04-17 13:21 42.39318 21.04964 16596 ft 335 kts 56°
2026-04-17 13:22 42.40566 21.07617 16175 ft 333 kts 55°
2026-04-17 13:22 42.41809 21.10256 15768 ft 332 kts 55°
2026-04-17 13:22 42.43046 21.12882 15356 ft 330 kts 56°
2026-04-17 13:22 42.44276 21.15499 14939 ft 329 kts 55°
2026-04-17 13:23 42.45502 21.18109 14526 ft 328 kts 56°
2026-04-17 13:23 42.46619 21.20799 14127 ft 328 kts 68°
2026-04-17 13:23 42.46928 21.23850 13780 ft 330 kts 94°
2026-04-17 13:23 42.46218 21.26794 13383 ft 331 kts 121°
2026-04-17 13:24 42.44667 21.29009 13147 ft 319 kts 141°
2026-04-17 13:24 42.42934 21.30813 12559 ft 312 kts 141°
2026-04-17 13:24 42.41201 21.32568 11885 ft 309 kts 142°
2026-04-17 13:24 42.39494 21.34275 11397 ft 300 kts 142°
2026-04-17 13:25 42.37821 21.35825 11135 ft 286 kts 152°
2026-04-17 13:25 42.35923 21.36408 10809 ft 280 kts 182°
2026-04-17 13:25 42.34048 21.35715 10582 ft 283 kts 211°
2026-04-17 13:25 42.32624 21.33933 10278 ft 281 kts 233°
2026-04-17 13:26 42.31436 21.31813 9890 ft 283 kts 234°
2026-04-17 13:26 42.30255 21.29682 9522 ft 283 kts 235°
2026-04-17 13:26 42.29332 21.27360 9162 ft 279 kts 256°
2026-04-17 13:26 42.29175 21.24794 8743 ft 273 kts 283°
2026-04-17 13:27 42.29778 21.22441 8276 ft 262 kts 307°
2026-04-17 13:27 42.30900 21.20562 7758 ft 256 kts 316°
2026-04-17 13:27 42.32081 21.18773 7307 ft 254 kts 316°
2026-04-17 13:27 42.33245 21.16997 6897 ft 251 kts 316°
2026-04-17 13:28 42.34401 21.15229 6517 ft 251 kts 315°
2026-04-17 13:28 42.35560 21.13457 6133 ft 252 kts 316°
2026-04-17 13:28 42.36724 21.11669 5742 ft 254 kts 315°
2026-04-17 13:28 42.37893 21.09878 5353 ft 253 kts 315°
2026-04-17 13:29 42.39053 21.08099 5082 ft 247 kts 314°
2026-04-17 13:29 42.40178 21.06442 5027 ft 230 kts 324°
2026-04-17 13:29 42.41500 21.05381 4865 ft 217 kts 345°
2026-04-17 13:29 42.42956 21.05035 4600 ft 211 kts 359°
2026-04-17 13:30 42.44423 21.04891 4286 ft 211 kts 358°
2026-04-17 13:30 42.45884 21.04745 3978 ft 208 kts 359°
2026-04-17 13:30 42.47294 21.04602 3731 ft 197 kts 359°
2026-04-17 13:30 42.48625 21.04467 3470 ft 188 kts 359°
2026-04-17 13:31 42.49897 21.04339 3210 ft 178 kts 357°
2026-04-17 13:31 42.51084 21.04212 2934 ft 165 kts 359°
2026-04-17 13:31 42.52153 21.04104 2710 ft 145 kts 358°
2026-04-17 13:31 42.53099 21.04013 2517 ft 130 kts 358°
2026-04-17 13:32 42.54001 21.03918 2283 ft 129 kts 358°
2026-04-17 13:32 42.54887 21.03840 2082 ft 126 kts 354°
2026-04-17 13:32 42.55755 21.03745 1863 ft 125 kts 355°
2026-04-17 13:32 42.56603 21.03664 1785 ft 115 kts 355°
2026-04-17 13:33 42.57259 21.03592 1789 ft 70 kts 355°
2026-04-17 13:33 42.57609 21.03556 1786 ft 41 kts 355°
2026-04-17 13:33 42.57844 21.03477 1785 ft 27 kts 330°
2026-04-17 13:33 42.57972 21.03365 1788 ft 15 kts 326°
2026-04-17 13:34 42.57999 21.03280 1788 ft 11 kts 220°
2026-04-17 13:34 42.57923 21.03278 1786 ft 13 kts 175°
2026-04-17 13:34 42.57824 21.03288 1786 ft 16 kts 175°
2026-04-17 13:34 42.57708 21.03300 1787 ft 18 kts 177°
2026-04-17 13:35 42.57606 21.03298 1787 ft 11 kts 216°
2026-04-17 13:35 42.57547 21.03219 1787 ft 13 kts 189°
2026-04-17 13:35 42.57476 21.03225 1786 ft 10 kts 175°
2026-04-17 13:35 42.57433 21.03207 1787 ft 6 kts 249°
2026-04-17 13:36 42.57418 21.03162 1786 ft 6 kts 249°
2026-04-17 13:36 42.57407 21.03155 1787 ft 0 kts 176°
2026-04-17 13:36 42.57396 21.03155 1787 ft 0 kts 265°